www.pogodaiklimat.ru

Погода и климат >> Архив погоды >> Нигер >> Zinder


ПОГОДА в Zinder

  • Прогноз погоды в Zinder
  • Монитор погоды в Zinder
  • Климат города

АРХИВ ПОГОДЫ в Zinder

Время (UTC), дата Ветер
(напр.,м/с)
 
Видим.   Явления Облачность Т
(С)
Тd
(С)
f
(%)
Тe
(С)
Тes
(С)
Комфортность P
(гПа)
Po
(гПа)
Тmin
(С)
Tmax
(С)
R
(мм)
R24
(мм)
S
(см)
03 13.07 ЮЗ 6 10 км 6/0
[Ci sp]
+24.5 +22.4 88 +32 +32 очень
душно
1010.4 960.4
06 13.07 ЮЗ 4 10 км 9/0
[Cs]
+24.5 +22.7 90 +32 +33 очень
душно
1011.4 961.2 +23.7 0.4
09 13.07 З 12 10 км 8/0
[Cs]
+29.0 +21.8 65 +37 +37 очень
душно
1012.1 962.0
12 13.07 З 12 10 км 8/0
[Cs]
+33.6 +20.4 46 +40 +40 очень
душно
1010.4 960.7
15 13.07 З 12 10 км 9/0
[Cs]
+35.0 +19.8 41 +41 +41 опасность
перегрева
1008.9 959.2
18 13.07 ЮЗ 8 10 км 9/0
[Cs]
+32.5 +20.1 48 +39 +39 очень
душно
1008.3 958.5 +35.5
21 13.07 ЮЗ 10 10 км 9/0
[Cs]
+30.0 +21.3 60 +38 +38 очень
душно
1008.9 959.1
00 14.07 Ю 10 10 км 9/0
[Cs]
+28.0 +24.8 83 +40 +40 очень
душно
1009.2 959.8
03 14.07 ЮЗ 10 10 км 9/0
[Cs]
+26.5 +23.7 85 +36 +36 очень
душно
1008.7 959.3
06 14.07 ЮЗ 10 10 км 9/0
[Cs]
+26.1 +23.1 84 +35 +35 очень
душно
1009.9 960.2 +25.7
09 14.07 З 16 10 км 9/0
[Cs]
+31.0 +21.6 57 +39 +39 очень
душно
1010.4 961.2
12 14.07 З 12 10 км 9/0
[Cs]
+36.5 +22.5 45 +46 +46 опасность
перегрева
1009.3 959.8
15 14.07 ЮЗ 10 10 км 9/3 1200 м
[Cu hum Cs]
+34.8 +20.7 44 +42 +42 опасность
перегрева
1016.9 957.4
18 14.07 ЮЗ 10 10 км 9/1 1200 м
[Cb cap Ac lent Cs]
+32.6 +20.5 49 +39 +39 очень
душно
1007.0 957.4 +35.7
21 14.07 Ю 8 10 км 9/0
[Ac trans Cs]
+30.4 +22.4 62 +39 +39 очень
душно
1009.1 959.6
00 15.07 Ю 8 10 км 9/0
[Cs]
+28.5 +22.8 71 +38 +38 очень
душно
1008.7 959.3
03 15.07 ЮЗ 6 10 км 9/0
[Cs]
+27.5 +22.5 74 +36 +36 очень
душно
1007.9 958.5
06 15.07 Ю 6 10 км 9/0
[Cs]
+26.0 +24.4 91 +36 +37 очень
душно
1009.0 959.3 +25.8
09 15.07 ЮЗ 8 10 км 9/0
[Cs]
+30.2 +19.5 53 +36 +38 очень
душно
1010.1 960.5
12 15.07 З 8 10 км 9/3 1200 м
[Cu med, cong Ac cast Cs]
+33.4 +19.6 44 +39 +41 очень
душно
1009.4 959.9
15 15.07 З 10 10 км гроза без осадков 9/4 1000 м
[Cb cap Ci sp]
+35.0 +20.0 42 +41 +41 опасность
перегрева
1006.7 957.4
18 15.07 ЮЗ 6 10 км гроза без осадков 9/4 1200 м
[Cb cap Ac As Ci sp]
+29.0 +21.0 62 +36 +36 очень
душно
1008.7 958.7 +35.1
21 15.07 З 8 10 км {гроза, дождь} 9/0
[Ac As Ci sp]
+27.0 +20.7 68 +34 +34 очень
душно
1010.9 961.0
00 16.07 ЮЗ 6 10 км {гроза, дождь} 9/0
[Ac trans Cs]
+26.2 +21.6 76 +34 +34 очень
душно
1011.0 961.3 0.0
06 16.07 СЗ 10 10 км 9/1 1000 м
[Sc Cs]
+24.5 +21.4 83 +31 +31 очень
душно
1010.9 960.7 +24.3 0.0
09 16.07 З 8 10 км 9/0
[Cs]
+28.8 +21.1 63 +36 +38 очень
душно
1011.8 961.7
12 16.07 ЮЗ 6 10 км 9/1 1200 м
[Cu hum Ac trans Cs]
+33.5 +21.3 49 +41 +45 опасность
перегрева
1010.4 960.7
15 16.07 ЮЗ 6 10 км 9/4 1200 м
[Cu med, cong Ac trans Ci sp]
+34.0 +20.2 44 +40 +41 очень
душно
1008.5 958.9
18 16.07 ЮВ 16 6000 м гроза, пыльная буря 9/4 1200 м
[Cb cap Ac As Ci sp]
+28.5 +19.6 59 +34 +34 очень
душно
1010.6 960.3 +34.6
21 16.07 Ю 14 8000 м гроза, ливневой дождь 10/1 1200 м
[Cb cap Ac As]
+22.3 +21.3 94 +29 +29 очень
душно
1012.1 961.7
00 17.07 З 4 10 км {гроза, дождь} 9/0
[Ac As Ci sp]
+23.2 +22.4 95 +32 +32 очень
душно
1010.4 960.5 0.2
03 17.07 З 4 10 км 9/0
[Ac As Ci sp]
+24.4 +22.7 90 +32 +32 очень
душно
1010.0 960.2
06 17.07 Ю 8 10 км слабый дождь 9/0
[Ac As Ci sp]
+24.0 +22.9 94 +32 +32 очень
душно
1011.2 960.8 +22.0 42
09 17.07 ЮЗ 8 10 км 9/1 900 м
[Sc Ac As Ci sp]
+25.8 +22.5 82 +34 +35 очень
душно
1012.8 962.1
12 17.07 ЮЗ 10 10 км {дождь} 9/4 1000 м
[Sc Ac trans Ci sp]
+30.0 +23.4 68 +41 +41 опасность
перегрева
1011.4 961.2 0.0
18 17.07 Ю 6 10 км 9/4 1000 м
[Cb cap Ci sp]
+31.0 +21.7 58 +39 +39 очень
душно
1008.6 958.6 +32.6 0.0
21 17.07 ЮЗ 4 10 км 9/0
[Cs]
+28.5 +22.8 71 +38 +38 очень
душно
1011.0 960.8
00 18.07 З 6 10 км зарница 9/1 1200 м
[Cb cap Ac cast Cs]
+27.3 +23.8 81 +37 +37 очень
душно
1011.1 961.1
03 18.07 ЮВ 10 10 км зарница 9/1 1200 м
[Cb cap Ac trans Ci sp]
+26.2 +23.1 83 +35 +35 очень
душно
1010.3 960.6
06 18.07 З 4 10 км 9/0
[Ac cast Ci sp]
+25.8 +23.3 86 +35 +35 очень
душно
1011.3 961.3 +25.3 0.0
09 18.07 ЮЗ 8 10 км 9/3 900 м
[Cu hum Cs]
+30.0 +22.9 66 +40 +42 очень
душно
1012.1 962.2
12 18.07 З 6 10 км 9/4 1000 м
[Cu hum Ci sp]
+32.5 +20.9 50 +40 +44 очень
душно
1011.7 962.0
15 18.07 ЮЗ 6 10 км 9/5 1000 м
[Cb cap Ci sp]
+35.0 +19.6 41 +41 +42 опасность
перегрева
1008.8 959.3
18 18.07 ЮЗ 6 10 км 9/3 1000 м
[Cb cap Cs]
+32.0 +21.0 52 +39 +39 очень
душно
1009.1 959.3 +35.3
21 18.07 СЗ 4 10 км 9/0
[Ac trans Cs]
+29.5 +21.9 64 +38 +38 очень
душно
1011.0 961.3
03 19.07 ЮЗ 4 10 км 9/0
[Ac trans Cs]
+27.2 +22.6 76 +36 +36 очень
душно
1009.6 960.1
09 19.07 ЮЗ 10 10 км 9/0
[Cs]
+31.0 +23.3 64 +42 +42 опасность
перегрева
1011.1 961.4
12 19.07 З 6 10 км 9/4 1000 м
[Cu hum Ci sp]
+34.2 +22.8 52 +44 +48 опасность
перегрева
1009.7 960.3
15 19.07 ЮЗ 6 10 км гроза без осадков 9/4 1000 м
[Cb cap Ci sp]
+35.5 +22.0 46 +44 +46 опасность
перегрева
1006.9 957.6
18 19.07 СВ 4 10 км гроза без осадков 9/4 1000 м
[Cb cap Ac As Ci sp]
+28.4 +19.6 59 +34 +34 очень
душно
1009.8 959.8 +36.3
21 19.07 штиль 0 10 км {гроза, дождь} 9/0
[Cs]
+27.0 +22.7 77 +36 +36 очень
душно
1008.9 959.1

 

Местоположение метеостанции Zinder (Нигер): широта 13.78 долгота 8.98 высота над уровнем моря 453 м.

В архиве по умолчанию представлена погода в Zinder за последнюю неделю. Архивные данные за месяц целиком и за предыдущие месяцы, начиная с января 2011 года, Вы можете получить, выбрав интересующий диапазон дат из раскрывающегося списка и нажав кнопку "Ввод!".


*Определитесь, кто Вы:
робот инопланетянин человек

Внимание! Время в таблицах - всемирное. Для получения местного времени необходимо прибавить поправку, которая в Zinder равна 1 ч.

Смотрите также архив погоды в соседних городах и на ближайших метеорологических станциях:

Погода в Magaria (Нигер) (89 км)
Погода в Goure (Нигер) (144 км)
Погода в Cano (Нигерия) (199 км)
Погода в Maradi (Нигер) (208 км)
Погода в Maine-Soroa (Нигер) (330 км)
Погода в Agadez (Нигер) (371 км)
Погода в Birni-Nkonni (Нигер) (403 км)
Погода в Diffa (Нигер) (413 км)
Погода в Tahoua (Нигер) (421 км)
Погода в Nguigmi (Нигер) (450 км)

Пояснения к столбцам:

Ветер - указаны скорость ветра в м/с - средняя за 10 мин, порывы в срок и между сроками (в фигурных скобках) и направление, откуда дует ветер: С - северный, СВ - северо-восточный, В - восточный, ЮВ - юго-восточный, Ю - южный, ЮЗ - юго-западный, З - западный, СЗ - северо-западный.
Видимость - горизонтальная дальность видимости в метрах или километрах. При видимости от 1 до 10 км при отсутствии осадков обычно наблюдается дымка, при ухудшении видимости до 1 км и менее - туман. В сухую погоду видимость может ухудшаться дымом, пылью или мглою.
Явления - указаны атмосферные явления, наблюдавшиеся в срок или в последний час перед сроком; фигурными скобками обозначены явления, наблюдавшиеся между сроками (за 1-3 часа до срока); квадратными скобками обозначены град или гололедные отложения с указанием их диаметра в мм.
Облачность - указаны через наклонную черту общая и нижняя облачность в баллах и высота нижней границы облаков в метрах; квадратными скобками обозначены формы облаков: Ci - перистые, Cs - перисто-слоистые, Cc - перисто-кучевые, Ac - высококучевые, As - высокослоистые, Sc - слоисто-кучевые, Ns - слоисто-дождевые, Cu - кучевые, Cb - кучево-дождевые. Подробнее классификацию облаков см. в Атласе облаков (PDF).
T - Температура воздуха - температура, измеренная на высоте 2 м над землей.
Td - Температура точки росы - температура, при понижении до которой содержащийся в воздухе водяной пар достигнет насыщения.
f - Относительная влажность воздуха - влажноcть воздуха, измеренная на высоте 2 м над землей.
Te - Эффективная температура - температура, которую ощущает одетый по сезону человек в тени. Характеристика душности погоды. При расчете учитывается влияние влажности воздуха и скорости ветра на теплоощущения человека.
Tes - Эффективная температура на солнце - температура, которую ощущает человек, с поправкой на солнечный нагрев. Характеристика знойности погоды. Зависит от высоты солнца над горизонтом, облачности и скорости ветра. Ночью, в пасмурную погоду, а также при ветре 12 м/с и более поправка равна нулю.
P - Атмосферное давление - приведенное к уровню моря атмосферное давление.
Po - Атмосферное давление - измеренное на уровне метеостанции атмосферное давление.
Tmin - Минимальная температура - минимум температуры воздуха на высоте 2 м над землей.
Tmax - Максимальная температура - максимум температуры воздуха на высоте 2 м над землей.
R - Количество осадков - Количество выпавших осадков за период времени, мм. При наведении курсора мыши на число - период времени, за который выпало указанное количество осадков.
R24 - Количество осадков - Количество выпавших осадков за 24 часа, мм.
S - Снежный покров - Высота снежного покрова, см. При наведении курсора мыши на число - состояние снежного покрова и степень покрытия местности в баллах.